When you browse on this site, cookies collect data to enhance your experience and personalize the content and advertising you see.
Visit our Privacy Policy to learn more. By continuing to use the site, you agree to this use of cookies and data.
  • In Switzerland
  • List of Countries
  • For 7 days
  • Water Temperature
  • Weather Map
  • Weather Widgets
  • user-avatar
    Login

    Hourly Weather Pinneberg

    Today, 3 June, Wednesday

    Time Temperature Precipitation Wind Pressure Humidity
    00:00 +15°C° 0 mm 2 mps 756 mmHg 80%
    01:00 +14°C° 0 mm 2 mps 756 mmHg 75%
    02:00 +14°C° 0 mm 2 mps 755 mmHg 75%
    03:00 +13°C° 0 mm 2 mps 755 mmHg 75%
    04:00 +13°C° 0 mm 2 mps 754 mmHg 75%
    05:00 +14°C° 0.1 mm 2 mps 754 mmHg 77%
    06:00 +15°C° 0.1 mm 2 mps 754 mmHg 79%
    07:00 +16°C° 0.1 mm 2 mps 754 mmHg 80%
    08:00 +18°C° 0.1 mm 2 mps 753 mmHg 75%
    09:00 +20°C° 0.1 mm 3 mps 753 mmHg 69%
    10:00 +21°C° 0.1 mm 3 mps 753 mmHg 63%
    11:00 +22°C° 0.2 mm 3 mps 752 mmHg 61%
    12:00 +24°C° 0.2 mm 3 mps 752 mmHg 58%
    13:00 +25°C° 0.2 mm 3 mps 752 mmHg 55%
    14:00 +24°C° 1.1 mm 3 mps 751 mmHg 62%
    15:00 +22°C° 1.1 mm 3 mps 751 mmHg 70%
    16:00 +21°C° 1.1 mm 3 mps 750 mmHg 77%
    17:00 +20°C° 1.1 mm 3 mps 750 mmHg 80%
    18:00 +19°C° 1.1 mm 3 mps 750 mmHg 83%
    19:00 +18°C° 1.1 mm 3 mps 749 mmHg 86%
    20:00 +17°C° 0.5 mm 3 mps 749 mmHg 87%
    21:00 +15°C° 0.5 mm 4 mps 749 mmHg 89%
    22:00 +14°C° 0.5 mm 4 mps 749 mmHg 90%
    23:00 +14°C° 0.3 mm 4 mps 748 mmHg 90%

    Tomorrow, 4 June, Thursday

    Time Temperature Precipitation Wind Pressure Humidity
    00:00 +13°C° 0.3 mm 4 mps 748 mmHg 90%
    01:00 +13°C° 0.3 mm 4 mps 748 mmHg 90%
    02:00 +12°C° 0.3 mm 4 mps 747 mmHg 91%
    03:00 +12°C° 0.3 mm 3 mps 746 mmHg 91%
    04:00 +11°C° 0.3 mm 3 mps 746 mmHg 92%
    05:00 +12°C° 0.3 mm 3 mps 745 mmHg 91%
    06:00 +13°C° 0.3 mm 4 mps 745 mmHg 90%
    07:00 +13°C° 0.3 mm 4 mps 745 mmHg 90%
    08:00 +14°C° 0.1 mm 4 mps 744 mmHg 88%
    09:00 +14°C° 0.1 mm 4 mps 744 mmHg 87%
    10:00 +15°C° 0.1 mm 4 mps 744 mmHg 86%
    11:00 +15°C° 1.2 mm 4 mps 743 mmHg 88%
    12:00 +14°C° 1.2 mm 4 mps 743 mmHg 91%
    13:00 +14°C° 1.2 mm 3 mps 743 mmHg 94%
    14:00 +14°C° 1.7 mm 3 mps 742 mmHg 95%
    15:00 +15°C° 1.7 mm 2 mps 742 mmHg 95%
    16:00 +15°C° 1.7 mm 2 mps 742 mmHg 96%
    17:00 +15°C° 0.5 mm 2 mps 741 mmHg 96%
    18:00 +15°C° 0.5 mm 2 mps 741 mmHg 96%
    19:00 +15°C° 0.5 mm 2 mps 741 mmHg 95%
    20:00 +13°C° 1.1 mm 3 mps 741 mmHg 95%
    21:00 +12°C° 1.1 mm 4 mps 741 mmHg 95%
    22:00 +10°C° 1.1 mm 5 mps 741 mmHg 94%
    23:00 +10°C° 0 mm 5 mps 741 mmHg 94%

    Day after tomorrow, 5 June, Friday

    Time Temperature Precipitation Wind Pressure Humidity
    00:00 +10°C° 0 mm 4 mps 741 mmHg 94%
    01:00 +10°C° 0 mm 4 mps 741 mmHg 94%
    02:00 +8°C° 0 mm 4 mps 741 mmHg 94%
    03:00 +8°C° 0 mm 4 mps 742 mmHg 94%
    04:00 +7°C° 0 mm 4 mps 742 mmHg 94%
    05:00 +8°C° 0 mm 5 mps 742 mmHg 90%
    06:00 +8°C° 0 mm 5 mps 742 mmHg 85%
    07:00 +9°C° 0 mm 6 mps 743 mmHg 81%
    08:00 +10°C° 0.1 mm 6 mps 743 mmHg 74%
    09:00 +11°C° 0.1 mm 6 mps 743 mmHg 66%
    10:00 +13°C° 0.1 mm 6 mps 743 mmHg 59%
    11:00 +14°C° 0.1 mm 6 mps 743 mmHg 58%
    12:00 +15°C° 0.1 mm 5 mps 743 mmHg 56%
    13:00 +15°C° 0.1 mm 5 mps 743 mmHg 55%
    14:00 +17°C° 0.2 mm 4 mps 743 mmHg 56%
    15:00 +17°C° 0.2 mm 4 mps 742 mmHg 57%
    16:00 +17°C° 0.2 mm 4 mps 742 mmHg 57%
    17:00 +14°C° 0.4 mm 4 mps 742 mmHg 67%
    18:00 +13°C° 0.4 mm 4 mps 742 mmHg 76%
    19:00 +12°C° 0.4 mm 3 mps 741 mmHg 85%
    20:00 +10°C° 2.3 mm 3 mps 742 mmHg 89%
    21:00 +9°C° 2.3 mm 3 mps 742 mmHg 92%
    22:00 +7°C° 2.3 mm 4 mps 742 mmHg 96%
    23:00 +6°C° 0.2 mm 4 mps 742 mmHg 95%

    6 June, Saturday

    Time Temperature Precipitation Wind Pressure Humidity
    00:00 +6°C° 0.2 mm 4 mps 742 mmHg 95%
    01:00 +6°C° 0.2 mm 4 mps 742 mmHg 95%
    02:00 +6°C° 0 mm 4 mps 742 mmHg 94%
    03:00 +5°C° 0 mm 4 mps 742 mmHg 94%
    04:00 +4°C° 0 mm 3 mps 742 mmHg 94%
    05:00 +5°C° 0 mm 4 mps 743 mmHg 92%
    06:00 +7°C° 0 mm 5 mps 743 mmHg 90%
    07:00 +8°C° 0 mm 6 mps 743 mmHg 88%
    08:00 +9°C° 0.2 mm 6 mps 743 mmHg 82%
    09:00 +10°C° 0.2 mm 7 mps 743 mmHg 76%
    10:00 +11°C° 0.2 mm 7 mps 744 mmHg 69%
    11:00 +12°C° 0.3 mm 7 mps 744 mmHg 65%
    12:00 +13°C° 0.3 mm 8 mps 744 mmHg 60%
    13:00 +13°C° 0.3 mm 8 mps 744 mmHg 56%
    14:00 +14°C° 0.2 mm 7 mps 745 mmHg 56%
    15:00 +14°C° 0.2 mm 7 mps 745 mmHg 56%
    16:00 +14°C° 0.2 mm 7 mps 745 mmHg 57%
    17:00 +14°C° 0.1 mm 6 mps 745 mmHg 62%
    18:00 +13°C° 0.1 mm 4 mps 746 mmHg 67%
    19:00 +12°C° 0.1 mm 3 mps 746 mmHg 73%
    20:00 +11°C° 0 mm 3 mps 746 mmHg 75%
    21:00 +10°C° 0 mm 3 mps 747 mmHg 78%
    22:00 +8°C° 0 mm 3 mps 747 mmHg 80%
    23:00 +8°C° 0 mm 3 mps 747 mmHg 79%

    7 June, Sunday

    Time Temperature Precipitation Wind Pressure Humidity
    00:00 +7°C° 0 mm 4 mps 747 mmHg 77%
    01:00 +7°C° 0 mm 4 mps 747 mmHg 76%
    02:00 +7°C° 0 mm 4 mps 747 mmHg 74%
    03:00 +7°C° 0 mm 4 mps 747 mmHg 73%
    04:00 +7°C° 0 mm 4 mps 747 mmHg 71%
    05:00 +7°C° 0 mm 5 mps 747 mmHg 71%
    06:00 +8°C° 0 mm 6 mps 748 mmHg 72%
    07:00 +9°C° 0 mm 6 mps 748 mmHg 72%
    08:00 +10°C° 0.1 mm 7 mps 748 mmHg 71%
    09:00 +11°C° 0.1 mm 7 mps 748 mmHg 71%
    10:00 +12°C° 0.1 mm 7 mps 748 mmHg 70%
    11:00 +13°C° 0.3 mm 8 mps 749 mmHg 69%
    12:00 +13°C° 0.3 mm 8 mps 749 mmHg 68%
    13:00 +15°C° 0.3 mm 9 mps 749 mmHg 67%
    14:00 +13°C° 0.4 mm 8 mps 750 mmHg 73%
    15:00 +13°C° 0.4 mm 6 mps 750 mmHg 79%
    16:00 +12°C° 0.4 mm 5 mps 751 mmHg 85%
    17:00 +12°C° 0.3 mm 5 mps 751 mmHg 85%
    18:00 +13°C° 0.3 mm 4 mps 751 mmHg 85%
    19:00 +13°C° 0.3 mm 4 mps 752 mmHg 86%
    20:00 +12°C° 0.1 mm 3 mps 752 mmHg 88%
    21:00 +11°C° 0.1 mm 3 mps 752 mmHg 91%
    22:00 +10°C° 0.1 mm 3 mps 753 mmHg 93%
    23:00 +10°C° 0 mm 3 mps 753 mmHg 93%

    8 June, Monday

    Time Temperature Precipitation Wind Pressure Humidity
    00:00 +10°C° 0 mm 3 mps 753 mmHg 94%
    01:00 +9°C° 0 mm 3 mps 753 mmHg 94%
    02:00 +9°C° 0 mm 3 mps 753 mmHg 94%
    03:00 +9°C° 0 mm 3 mps 753 mmHg 95%
    04:00 +9°C° 0 mm 3 mps 753 mmHg 96%
    05:00 +10°C° 0 mm 4 mps 753 mmHg 92%
    06:00 +11°C° 0 mm 4 mps 753 mmHg 88%
    07:00 +12°C° 0 mm 5 mps 753 mmHg 85%
    08:00 +14°C° 0 mm 5 mps 754 mmHg 78%
    09:00 +15°C° 0 mm 5 mps 754 mmHg 71%
    10:00 +17°C° 0 mm 5 mps 754 mmHg 63%
    11:00 +17°C° 0.4 mm 5 mps 754 mmHg 64%
    12:00 +17°C° 0.4 mm 5 mps 754 mmHg 65%
    13:00 +19°C° 0.4 mm 4 mps 754 mmHg 66%
    14:00 +19°C° 1 mm 4 mps 754 mmHg 70%
    15:00 +18°C° 1 mm 4 mps 754 mmHg 74%
    16:00 +18°C° 1 mm 3 mps 754 mmHg 78%
    17:00 +17°C° 1 mm 3 mps 754 mmHg 82%
    18:00 +17°C° 1 mm 2 mps 754 mmHg 85%
    19:00 +16°C° 1 mm 1 mps 754 mmHg 88%
    20:00 +15°C° 0.3 mm 1 mps 754 mmHg 89%
    21:00 +14°C° 0.3 mm 2 mps 754 mmHg 91%
    22:00 +13°C° 0.3 mm 2 mps 754 mmHg 92%
    23:00 +12°C° 0 mm 2 mps 754 mmHg 93%
    Show more